Regional Weather Roundup
Issued by NWS Memphis, TN

Home | Current Version | Previous Version | Text Only | Print | Product List | Glossary On
Versions: 1 2 3 4 5 6 7 8 9 10 11 12 13 14 15 16 17 18 19 20 21 22 23 24 25 26 27 28 29 30 31 32 33 34 35 36 37 38 39 40 41 42 43 44 45 46 47 48 49 50
000
ASUS44 KMEG 220510
RWRMEG
MEMPHIS CWA HOURLY WEATHER ROUNDUP
NATIONAL WEATHER SERVICE MEMPHIS TN
1200 AM CDT SUN APR 22 2018

...WEST TENNESSEE...

CITY           SKY/WX    TMP DP  RH WIND       PRES   REMARKS
MEMPHIS INTL   LGT RAIN  66  55  67 E6        30.06R
NWS MEMPHIS      N/A     63 N/A N/A MISG        N/A
JACKSON        FAIR      65  44  46 E6        30.11F
COVINGTON      MOCLDY    63  48  59 SE10      30.08S
SOMERVILLE       N/A     66  48  52 VRB5G12   30.04F
BOLIVAR        CLOUDY    64  45  48 E8        30.09F
LEXINGTON      MOCLDY    64  41  42 CALM      30.13F
SELMER         CLOUDY    64  45  48 SE5       30.12F
DYERSBURG      LGT RAIN  66  43  43 E9        30.10F
UNION CITY     CLOUDY    63  45  51 NE5       30.12F
PARIS          CLOUDY    63  39  42 E3        30.15F
HUNTINGDON     MOCLDY    63  41  45 E5        30.13F


...EASTERN ARKANSAS...

CITY           SKY/WX    TMP DP  RH WIND       PRES   REMARKS
JONESBORO      CLOUDY    60  53  77 N3        30.07R
WEST MEMPHIS   CLOUDY    67  53  61 SE7       30.05R
BATESVILLE     RAIN      56  53  90 W5        30.08R
NEWPORT        CLOUDY    62  51  67 E9        30.06S
WALNUT RIDGE   FAIR      61  49  64 NE8       30.08F
BLYTHEVILLE    FAIR      68  42  38 SE6       30.08S
SEARCY         LGT RAIN  58  58 100 W5        30.08R
STUTTGART      RAIN      63  56  78 E3        30.04R
PINE BLUFF     RAIN      58  56  93 NW12      30.05R FOG
MONTICELLO     RAIN      61  59  93 CALM      29.99S FOG


...NORTH MISSISSIPPI...

CITY           SKY/WX    TMP DP  RH WIND       PRES   REMARKS
TUPELO         FAIR      68  50  52 E7        30.10F
BATESVILLE       N/A    N/A N/A N/A MISG        N/A
TUNICA           N/A     64  52  63 E7        30.05F
CLARKSDALE     CLOUDY    68  57  68 E15       30.02F
CORINTH        FAIR      61  54  77 CALM      30.11F
GREENWOOD      FAIR      67  57  70 E14       29.97F
COLUMBUS       FAIR      64  55  73 E6        30.09F
STARKVILLE     FAIR      66  54  63 SE5       30.11R
GOLDEN TRIANGL FAIR      67  55  65 SE12      30.11R


...SOUTHEAST MISSOURI...

CITY           SKY/WX    TMP DP  RH WIND       PRES   REMARKS
KENNETT        MOCLDY    68  43  40 E8        30.07F
MALDEN         FAIR      63  45  51 E9        30.11F
WEST PLAINS    CLOUDY    61  34  36 E6        30.09S
POPLAR BLUFF   CLOUDY    63  43  48 E7        30.09F
CAPE GIRARDEAU CLOUDY    64  36  35 E9        30.13S


...NORTHWEST ALABAMA...

CITY           SKY/WX    TMP DP  RH WIND       PRES   REMARKS
MUSCLE SHOALS  CLOUDY    64  49  57 SE5       30.15F


...MIDDLE TENNESSEE...

CITY           SKY/WX    TMP DP  RH WIND       PRES   REMARKS
NASHVILLE      MOCLDY    58  41  53 SE5       30.19S
CLARKSVILLE    FAIR      61  36  39 E5        30.18R
COLUMBIA       MOCLDY    59  48  67 CALM      30.16R
LEWISBURG      MOCLDY    57  46  67 SE3       30.17F


...WESTERN KENTUCKY...

CITY           SKY/WX    TMP DP  RH WIND       PRES   REMARKS
PADUCAH        CLOUDY    63  37  38 E5        30.15F
FORT CAMPBELL  MOCLDY    61  36  40 E6        30.17R


...CENTRAL ARKANSAS...

CITY           SKY/WX    TMP DP  RH WIND       PRES   REMARKS
LITTLE ROCK    HVY RAIN  57  57 100 N5        30.08R FOG


SKY/WX REPORTED AS FAIR MEANS FEW OR NO CLOUDS BELOW
12 THOUSAND FEET.





USA.gov is the U.S. government's official web portal to all federal, state and local government web resources and services.